Location: Albany
(35.0170°S, 117.8920°E)
Time: 10:10:11
(UTC+08:00)

S-56A Canister/Altair - Pass Details

Date: 25 January 2021
Orbit: 632 x 2501 km, 38.9° (Epoch: 25 February)

Event Time Altitude Azimuth Distance (km) Brightness Sun altitude
Rises 17:20:41 0° 257° (WSW) 6,133 13.6 22.7°
Reaches altitude 10° 17:24:40 10° 255° (WSW) 5,172 13.8 21.9°
Maximum altitude 17:40:06 83° 166° (SSE) 2,342 10.3 18.8°
Drops below altitude 10° 17:52:22 10° 77° (ENE) 4,228 10.8 16.3°
Sets 17:55:17 0° 76° (ENE) 5,002 11.0 15.8°
